Location: Stuttgart
(48.7824°N, 9.1964°E)
Time: 01:32:49
(UTC+01:00)

ISS - Pass Details

Date: 26 January 2019
Orbit: 403 x 411 km, 51.6° (Epoch: 17 February)

Event Time Altitude Azimuth Distance (km) Brightness Sun altitude
Rises 19:11:46 0° 249° (WSW) 2,330 1.4 -19.8°
Reaches altitude 10° 19:13:51 10° 250° (WSW) 1,473 0.1 -20.1°
Enters shadow 19:16:57 78° 260° (W) 424 -3.8 -20.6°
